This is the latest recevied weather packets stored in our database for station/object 4S6DRJ-13. If no packets are shown the sender has not sent any weather packets the latest 10 day(s).
| Time | Temp. | Humidity | Pressure | Rain* | Wind** | Luminosity | Snow |
|---|---|---|---|---|---|---|---|
| 1787991878 | 30.56° C | 74% | 1008.6 hPa | 0 mm | 1.79 m/s, 247° | 1113 W/m² | - |
| 1787991818 | 30.56° C | 74% | 1008.7 hPa | 0 mm | 1.79 m/s, 347° | 768 W/m² | - |
| 1787991756 | 30.56° C | 73% | 1008.6 hPa | 0 mm | 4.02 m/s, 196° | 326 W/m² | - |
| 1787991695 | 30.56° C | 74% | 1008.7 hPa | 0 mm | 2.68 m/s, 178° | 1112 W/m² | - |
| 1787991635 | 30.56° C | 73% | 1008.5 hPa | 0 mm | 3.13 m/s, 241° | 1109 W/m² | - |
| 1787991574 | 30.56° C | 74% | 1008.7 hPa | 0 mm | 2.24 m/s, 229° | 1112 W/m² | - |
| 1787991513 | 30.56° C | 73% | 1008.6 hPa | 0 mm | 1.79 m/s, 249° | 1107 W/m² | - |
| 1787991452 | 30.56° C | 73% | 1008.9 hPa | 0 mm | 2.24 m/s, 10° | 1120 W/m² | - |
| 1787991391 | 31.11° C | 72% | 1008.6 hPa | 0 mm | 3.13 m/s, 250° | 399 W/m² | - |
| 1787991330 | 31.11° C | 72% | 1008.7 hPa | 0 mm | 2.68 m/s, 233° | 383 W/m² | - |
| 1787991269 | 31.11° C | 72% | 1008.7 hPa | 0 mm | 1.79 m/s, 241° | 403 W/m² | - |
| 1787991208 | 31.11° C | 72% | 1008.8 hPa | 0 mm | 1.79 m/s, 311° | 400 W/m² | - |
| 1787991147 | 31.11° C | 72% | 1008.5 hPa | 0 mm | 2.24 m/s, 247° | 460 W/m² | - |
| 1787991087 | 31.11° C | 72% | 1008.8 hPa | 0 mm | 1.79 m/s, 219° | 882 W/m² | - |
| 1787991025 | 31.11° C | 73% | 1008.9 hPa | 0 mm | 0.89 m/s, 211° | 879 W/m² | - |
| 1787990972 | 30.56° C | 73% | 1008.9 hPa | 0 mm | 2.68 m/s, 17° | 1121 W/m² | - |
| 1787990903 | 30.56° C | 74% | 1008.9 hPa | 0 mm | 0.45 m/s, 273° | 1121 W/m² | - |
| 1787990842 | 30.56° C | 73% | 1008.8 hPa | 0 mm | 1.34 m/s, 216° | 979 W/m² | - |
| 1787990781 | 31.11° C | 73% | 1008.7 hPa | 0 mm | 2.68 m/s, 338° | 1134 W/m² | - |
| 1787990720 | 31.11° C | 72% | 1008.9 hPa | 0 mm | 4.02 m/s, 145° | 812 W/m² | - |
| 1787990659 | 31.11° C | 74% | 1009 hPa | 0 mm | 2.24 m/s, 255° | 407 W/m² | - |
| 1787990598 | 31.11° C | 74% | 1008.9 hPa | 0 mm | 2.24 m/s, 197° | 401 W/m² | - |
| 1787990537 | 30.56° C | 73% | 1008.9 hPa | 0 mm | 3.58 m/s, 223° | 933 W/m² | - |
| 1787990476 | 30.56° C | 75% | 1008.9 hPa | 0 mm | 0.89 m/s, 174° | 1134 W/m² | - |
| 1787990427 | 30.56° C | 74% | 1008.9 hPa | 0 mm | 1.79 m/s, 235° | 1128 W/m² | - |
* Rain latest hour (hover to see other rain measurements)
** Current wind speed in m/s (hover to see current wind gust speed)